�N����,����,�~����,�C��,���x,�C��,����,���ϕ���,�ő�u�ԕ���,�ő厞����,���˗�,�I�_���x,�n�����x,�ő啗���N��,DTYPE
"21/10/03","00:10",0.0,17.6,88.6,1013.5,269.0,1.2,1.6,250.8,0.00,15.7,22.6,"00:06:32",1
"21/10/03","00:20",0.0,17.6,88.8,1013.5,271.9,1.0,2.0,248.2,0.00,15.8,22.5,"00:13:44",1
"21/10/03","00:30",0.0,17.5,89.1,1013.5,282.1,1.1,1.6,265.5,0.00,15.7,22.7,"00:23:12",1
"21/10/03","00:40",0.0,17.5,89.1,1013.8,273.4,1.0,1.3,247.4,0.00,15.7,22.4,"00:34:08",1
"21/10/03","00:50",0.0,17.4,89.3,1013.8,300.6,1.1,1.6,324.5,0.00,15.7,22.5,"00:47:52",1
"21/10/03","01:00",0.0,16.9,89.5,1013.8,328.9,1.2,1.8,335.0,0.00,15.2,22.3,"00:50:24",1
"21/10/03","01:10",0.0,16.5,89.7,1013.8,313.6,1.0,1.7,321.9,0.00,14.8,22.3,"01:00:16",1
"21/10/03","01:20",0.0,16.6,90.1,1013.8,311.9,1.0,2.6,325.3,0.00,15.0,22.5,"01:16:08",1
"21/10/03","01:30",0.0,17.0,90.1,1013.8,318.7,1.8,2.9,327.7,0.00,15.4,22.4,"01:26:56",1
"21/10/03","01:40",0.0,17.1,90.0,1013.8,319.3,1.5,4.1,325.0,0.00,15.5,22.2,"01:38:48",1
"21/10/03","01:50",0.0,17.2,89.6,1013.5,302.8,1.7,3.6,325.5,0.00,15.5,22.2,"01:41:20",1
"21/10/03","02:00",0.0,17.2,89.3,1014.0,294.3,1.5,4.2,334.5,0.00,15.5,22.2,"01:50:02",1
"21/10/03","02:10",0.0,17.1,89.1,1014.5,288.4,1.3,2.4,319.7,0.00,15.3,22.3,"02:00:08",1
"21/10/03","02:20",0.0,17.2,89.0,1014.2,300.8,1.6,3.3,321.1,0.00,15.4,22.2,"02:11:12",1
"21/10/03","02:30",0.0,17.1,89.0,1014.2,297.6,1.3,2.2,289.6,0.00,15.3,22.0,"02:21:04",1
"21/10/03","02:40",0.0,17.2,89.2,1014.5,299.0,1.6,2.8,306.5,0.00,15.4,22.0,"02:34:48",1
"21/10/03","02:50",0.0,17.2,89.1,1014.5,316.4,2.1,3.7,331.6,0.00,15.4,22.1,"02:45:28",1
"21/10/03","03:00",0.0,17.5,88.6,1014.7,322.3,2.2,4.1,331.5,0.00,15.6,22.0,"02:53:36",1
"21/10/03","03:10",0.0,17.5,88.3,1014.9,306.4,1.8,2.9,317.2,0.00,15.6,22.0,"03:08:08",1
"21/10/03","03:20",0.0,17.3,88.1,1014.7,317.7,2.2,3.5,319.1,0.00,15.4,21.9,"03:19:36",1
"21/10/03","03:30",0.0,17.4,87.8,1014.9,301.3,2.2,3.5,303.8,0.00,15.4,21.9,"03:21:52",1
"21/10/03","03:40",0.0,17.2,87.7,1014.5,289.8,1.8,3.4,339.4,0.00,15.2,22.0,"03:36:00",1
"21/10/03","03:50",0.0,17.1,87.8,1014.9,298.3,1.7,3.2,315.0,0.00,15.1,21.9,"03:45:36",1
"21/10/03","04:00",0.0,17.1,87.8,1014.9,310.7,2.2,4.1,320.0,0.00,15.1,21.9,"03:54:08",1
"21/10/03","04:10",0.0,17.1,87.7,1015.2,313.4,2.2,4.3,321.0,0.00,15.1,21.8,"04:00:08",1
"21/10/03","04:20",0.0,16.8,88.0,1015.4,328.9,1.6,2.5,342.5,0.00,14.8,21.7,"04:17:20",1
"21/10/03","04:30",0.0,16.7,88.4,1015.2,333.3,1.5,2.6,335.5,0.00,14.8,21.8,"04:26:48",1
"21/10/03","04:40",0.0,16.9,89.1,1015.4,330.0,2.1,3.2,343.8,0.00,15.1,21.7,"04:33:20",1
"21/10/03","04:50",0.0,17.0,89.5,1015.6,304.3,1.3,3.6,329.1,0.00,15.3,21.7,"04:43:04",1
"21/10/03","05:00",0.0,16.8,90.0,1015.9,304.7,1.3,2.5,335.4,0.00,15.2,21.7,"04:59:36",1
"21/10/03","05:10",0.0,16.5,90.5,1015.9,329.5,1.6,3.2,340.5,0.00,15.0,21.6,"05:06:16",1
"21/10/03","05:20",0.0,16.4,90.8,1015.9,312.8,1.5,2.5,338.4,0.00,14.9,21.7,"05:16:56",1
"21/10/03","05:30",0.0,16.2,91.2,1015.9,317.2,1.3,2.6,330.0,0.00,14.8,21.5,"05:21:04",1
"21/10/03","05:40",0.0,16.2,91.6,1016.1,320.1,1.6,2.7,330.2,0.00,14.9,21.4,"05:32:24",1
"21/10/03","05:50",0.0,16.3,91.9,1016.1,323.5,1.7,2.9,336.4,0.00,15.0,21.4,"05:45:04",1
"21/10/03","06:00",0.0,16.2,92.2,1016.8,323.5,1.7,3.7,335.9,0.00,15.0,21.5,"05:50:40",1
"21/10/03","06:10",0.0,16.1,92.4,1016.8,312.1,1.2,2.0,316.6,0.00,14.9,21.4,"06:04:08",1
"21/10/03","06:20",0.0,15.9,92.5,1017.1,324.5,0.8,1.3,351.1,0.00,14.7,21.3,"06:13:12",1
"21/10/03","06:30",0.0,15.7,92.8,1017.3,290.7,1.0,1.3,320.2,0.00,14.6,21.5,"06:29:20",1
"21/10/03","06:40",0.0,15.6,93.0,1017.3,311.2,1.2,1.7,321.5,0.00,14.5,21.5,"06:32:56",1
"21/10/03","06:50",0.0,15.7,93.3,1017.5,314.6,1.1,1.3,322.0,0.00,14.7,21.3,"06:40:40",1
"21/10/03","07:00",0.0,16.1,93.3,1017.5,304.3,0.7,1.0,325.1,0.01,15.1,21.2,"06:50:02",1
"21/10/03","07:10",0.0,16.7,93.4,1017.5,316.1,0.6,1.2,337.1,0.02,15.7,21.1,"07:02:56",1
"21/10/03","07:20",0.0,17.4,93.4,1017.8,317.1,1.0,2.2,335.7,0.03,16.4,21.2,"07:19:28",1
"21/10/03","07:30",0.0,18.2,93.4,1017.5,338.2,0.5,1.4,342.2,0.05,17.2,21.3,"07:20:08",1
"21/10/03","07:40",0.0,18.8,93.1,1017.8,32.5,0.2,0.8,94.2,0.07,17.7,21.3,"07:34:16",1
"21/10/03","07:50",0.0,19.1,92.5,1018.0,264.0,0.3,0.9,337.2,0.10,17.9,21.2,"07:49:12",1
"21/10/03","08:00",0.0,20.0,91.2,1018.0,314.0,0.5,2.1,238.4,0.12,18.6,21.3,"07:54:48",1
"21/10/03","08:10",0.0,20.5,90.9,1018.5,84.7,0.5,1.0,33.6,0.15,19.0,21.2,"08:01:20",1
"21/10/03","08:20",0.0,20.8,89.9,1018.0,171.4,0.3,0.8,100.5,0.18,19.1,21.3,"08:10:56",1
"21/10/03","08:30",0.0,20.7,86.9,1018.5,198.5,1.0,2.7,201.5,0.20,18.5,21.3,"08:29:28",1
"21/10/03","08:40",0.0,21.1,85.0,1018.7,191.8,1.0,2.0,201.7,0.23,18.5,21.3,"08:30:08",1
"21/10/03","08:50",0.0,21.8,82.0,1018.0,211.4,0.7,1.8,111.6,0.25,18.6,21.2,"08:45:04",1
"21/10/03","09:00",0.0,22.3,78.7,1018.2,37.1,0.6,1.8,105.0,0.28,18.5,21.3,"08:50:48",1
"21/10/03","09:10",0.0,23.0,75.5,1018.0,256.2,0.5,1.4,116.5,0.30,18.5,21.4,"09:09:36",1
"21/10/03","09:20",0.0,23.3,73.1,1017.8,109.6,0.6,1.8,122.4,0.33,18.3,21.2,"09:15:44",1
"21/10/03","09:30",0.0,23.7,71.6,1017.8,183.1,0.7,1.8,225.4,0.35,18.3,21.5,"09:24:00",1
"21/10/03","09:40",0.0,24.2,70.0,1017.5,191.7,0.6,1.8,235.5,0.37,18.4,21.5,"09:36:16",1
"21/10/03","09:50",0.0,24.8,68.3,1017.3,195.8,0.5,1.3,245.5,0.39,18.6,21.5,"09:47:20",1
"21/10/03","10:00",0.0,24.7,65.8,1017.1,212.9,1.2,2.7,191.1,0.41,17.9,21.6,"09:57:52",1
"21/10/03","10:10",0.0,25.3,65.3,1016.8,155.3,1.0,2.5,123.5,0.42,18.4,21.5,"10:09:44",1
"21/10/03","10:20",0.0,25.0,62.6,1017.1,170.7,1.6,2.9,199.6,0.44,17.4,21.6,"10:17:36",1
"21/10/03","10:30",0.0,25.6,62.8,1016.8,203.5,1.0,2.2,214.7,0.45,18.0,21.7,"10:22:48",1
"21/10/03","10:40",0.0,26.0,62.8,1017.3,157.9,1.2,2.6,144.7,0.47,18.4,21.7,"10:35:36",1
"21/10/03","10:50",0.0,26.3,59.9,1017.3,86.7,0.7,3.5,116.1,0.48,17.9,21.7,"10:45:44",1
"21/10/03","11:00",0.0,26.6,59.0,1017.5,219.9,1.1,2.5,199.1,0.49,18.0,21.9,"10:56:56",1
"21/10/03","11:10",0.0,26.8,57.5,1017.5,211.4,0.7,2.9,237.0,0.50,17.8,22.0,"11:06:24",1
"21/10/03","11:20",0.0,27.3,57.0,1017.5,130.5,0.7,2.1,164.0,0.51,18.1,22.0,"11:16:32",1
"21/10/03","11:30",0.0,27.8,56.1,1017.8,153.8,0.8,1.8,140.0,0.51,18.3,22.1,"11:22:08",1
"21/10/03","11:40",0.0,28.0,54.5,1018.0,33.5,0.7,2.0,122.0,0.52,18.0,22.2,"11:31:44",1
"21/10/03","11:50",0.0,28.0,53.3,1017.5,107.3,1.1,2.2,101.3,0.52,17.7,22.3,"11:44:16",1
"21/10/03","12:00",0.0,28.1,55.5,1017.8,189.6,1.2,2.2,229.7,0.52,18.4,22.2,"11:54:48",1
"21/10/03","12:10",0.0,28.5,53.8,1018.0,211.4,1.1,2.9,208.7,0.52,18.3,22.3,"12:09:20",1
"21/10/03","12:20",0.0,28.0,53.3,1017.5,243.7,1.7,3.9,236.8,0.52,17.7,22.3,"12:14:56",1
"21/10/03","12:30",0.0,28.8,53.5,1017.8,201.1,0.7,2.0,234.6,0.52,18.5,22.7,"12:24:48",1
"21/10/03","12:40",0.0,29.0,50.5,1017.5,232.6,1.2,3.2,242.4,0.52,17.7,22.7,"12:30:02",1
"21/10/03","12:50",0.0,28.8,50.3,1017.5,277.5,1.0,2.4,325.6,0.51,17.5,22.8,"12:48:00",1
"21/10/03","13:00",0.0,29.2,49.9,1017.8,334.1,1.0,2.4,332.7,0.50,17.7,23.0,"12:57:36",1
"21/10/03","13:10",0.0,29.7,48.1,1017.3,319.6,0.7,1.9,40.3,0.49,17.6,23.2,"13:06:56",1
"21/10/03","13:20",0.0,30.1,47.1,1017.3,91.2,1.0,1.8,102.0,0.48,17.6,23.1,"13:15:36",1
"21/10/03","13:30",0.0,30.1,45.7,1017.5,200.0,1.3,4.0,222.3,0.47,17.2,23.1,"13:28:40",1
"21/10/03","13:40",0.0,29.9,46.4,1017.1,167.1,1.3,3.9,123.3,0.46,17.2,23.2,"13:35:28",1
"21/10/03","13:50",0.0,30.3,48.5,1016.8,187.8,1.3,3.2,208.2,0.45,18.3,23.1,"13:45:12",1
"21/10/03","14:00",0.0,30.5,46.4,1016.8,153.0,1.2,2.6,144.4,0.43,17.8,23.5,"13:57:04",1
"21/10/03","14:10",0.0,30.2,46.6,1016.8,183.7,1.6,3.4,180.3,0.41,17.5,23.3,"14:07:36",1
"21/10/03","14:20",0.0,30.1,45.1,1016.6,200.6,2.5,4.7,214.2,0.40,16.9,23.4,"14:16:16",1
"21/10/03","14:30",0.0,30.4,43.5,1016.4,161.0,1.3,3.1,127.9,0.38,16.6,23.5,"14:27:36",1
"21/10/03","14:40",0.0,30.4,42.8,1016.6,164.8,1.5,4.0,134.9,0.36,16.4,23.5,"14:36:48",1
"21/10/03","14:50",0.0,30.2,38.1,1016.6,185.5,2.0,5.2,226.5,0.34,14.4,23.8,"14:48:08",1
"21/10/03","15:00",0.0,30.8,37.4,1016.4,174.2,0.8,2.7,166.0,0.32,14.6,23.7,"14:52:24",1
"21/10/03","15:10",0.0,31.2,39.1,1016.8,153.4,0.8,2.4,224.3,0.30,15.7,23.7,"15:02:24",1
"21/10/03","15:20",0.0,31.5,36.5,1017.1,23.3,0.6,2.1,92.7,0.28,14.9,24.0,"15:10:24",1
"21/10/03","15:30",0.0,31.2,36.4,1017.3,11.7,0.8,2.1,115.3,0.25,14.6,23.9,"15:21:12",1
"21/10/03","15:40",0.0,31.6,37.1,1017.3,331.3,0.6,1.4,350.8,0.23,15.2,23.7,"15:35:36",1
"21/10/03","15:50",0.0,31.0,33.0,1017.3,237.2,1.0,2.1,228.8,0.20,12.9,23.9,"15:48:24",1
"21/10/03","16:00",0.0,31.1,35.1,1017.3,302.8,0.7,2.8,232.3,0.18,13.9,24.0,"15:59:44",1
"21/10/03","16:10",0.0,30.6,35.9,1017.3,241.2,1.3,3.1,237.9,0.15,13.8,24.1,"16:01:04",1
"21/10/03","16:20",0.0,30.2,34.9,1017.1,247.7,1.2,2.9,231.5,0.13,13.1,24.1,"16:17:36",1
"21/10/03","16:30",0.0,30.1,33.8,1016.8,271.2,0.8,2.2,240.0,0.10,12.5,24.2,"16:29:20",1
"21/10/03","16:40",0.0,29.9,37.2,1016.6,247.8,1.1,3.3,234.7,0.08,13.8,23.9,"16:30:56",1
"21/10/03","16:50",0.0,29.5,40.8,1016.8,251.8,0.8,2.4,233.1,0.06,14.8,24.1,"16:41:20",1
"21/10/03","17:00",0.0,29.2,44.3,1016.6,323.4,0.7,1.7,311.2,0.04,15.8,24.1,"16:51:04",1
"21/10/03","17:10",0.0,28.1,45.7,1016.4,311.1,1.0,1.6,347.9,0.02,15.3,24.1,"17:02:32",1
"21/10/03","17:20",0.0,27.3,51.4,1016.4,321.1,1.2,2.4,344.4,0.01,16.4,24.1,"17:17:28",1
"21/10/03","17:30",0.0,26.0,55.7,1016.4,297.0,0.8,1.4,248.0,0.00,16.5,24.2,"17:20:08",1
"21/10/03","17:40",0.0,24.9,59.8,1016.8,285.1,0.6,1.0,319.5,0.00,16.6,24.0,"17:31:20",1
"21/10/03","17:50",0.0,24.2,61.9,1017.3,287.3,0.7,1.1,255.5,0.00,16.5,23.9,"17:40:24",1
"21/10/03","18:00",0.0,23.8,63.0,1017.3,288.9,0.7,1.8,245.2,0.00,16.4,23.9,"17:58:08",1
"21/10/03","18:10",0.0,23.2,64.2,1018.0,292.2,0.3,1.6,327.5,0.00,16.1,23.9,"18:00:02",1
"21/10/03","18:20",0.0,22.9,65.7,1018.2,302.5,1.0,1.7,322.1,0.00,16.2,23.9,"18:10:08",1
"21/10/03","18:30",0.0,22.4,66.7,1018.2,282.3,0.7,1.0,292.6,0.00,15.9,23.8,"18:22:08",1
"21/10/03","18:40",0.0,22.1,67.5,1018.7,298.4,1.0,2.4,335.0,0.00,15.8,23.7,"18:37:28",1
"21/10/03","18:50",0.0,21.9,68.1,1019.0,304.3,0.8,1.6,264.5,0.00,15.8,23.7,"18:40:56",1
"21/10/03","19:00",0.0,21.5,68.8,1018.7,305.6,0.7,1.3,303.4,0.00,15.6,23.6,"18:55:52",1
"21/10/03","19:10",0.0,21.2,69.3,1019.2,276.4,0.7,1.4,255.2,0.00,15.4,23.7,"19:04:24",1
"21/10/03","19:20",0.0,21.0,69.9,1019.7,298.8,0.6,1.1,311.9,0.00,15.3,23.7,"19:19:20",1
"21/10/03","19:30",0.0,20.7,71.0,1019.4,313.1,1.0,1.4,321.9,0.00,15.3,23.6,"19:25:36",1
"21/10/03","19:40",0.0,20.3,72.7,1019.7,305.8,0.7,1.2,315.3,0.00,15.3,23.5,"19:39:36",1
"21/10/03","19:50",0.0,20.2,74.9,1019.7,334.2,1.1,1.6,344.4,0.00,15.6,23.5,"19:47:20",1
"21/10/03","20:00",0.0,19.5,76.7,1019.9,320.4,0.3,0.9,305.8,0.00,15.3,23.5,"19:53:52",1
"21/10/03","20:10",0.0,19.2,78.5,1019.9,300.9,0.5,1.2,323.6,0.00,15.4,23.3,"20:07:04",1
"21/10/03","20:20",0.0,19.0,80.1,1019.7,332.5,0.7,1.2,330.1,0.00,15.5,23.4,"20:15:12",1
"21/10/03","20:30",0.0,18.9,81.4,1019.9,310.0,0.3,0.9,269.6,0.00,15.7,23.5,"20:27:28",1
"21/10/03","20:40",0.0,18.8,82.3,1020.1,316.3,0.3,1.3,298.6,0.00,15.8,23.4,"20:30:02",1
"21/10/03","20:50",0.0,19.4,82.6,1020.1,332.2,1.1,1.7,7.2,0.00,16.4,23.3,"20:45:04",1
"21/10/03","21:00",0.0,19.1,82.5,1020.4,299.9,0.6,0.9,328.6,0.00,16.1,23.1,"20:50:48",1
"21/10/03","21:10",0.0,18.7,83.0,1020.8,282.8,0.6,1.1,259.5,0.00,15.8,23.2,"21:07:44",1
"21/10/03","21:20",0.0,18.9,83.5,1020.6,311.3,1.0,1.8,332.8,0.00,16.1,23.1,"21:15:44",1
"21/10/03","21:30",0.0,19.1,83.5,1020.6,311.0,0.8,1.8,339.6,0.00,16.3,23.0,"21:23:36",1
"21/10/03","21:40",0.0,19.0,83.4,1020.8,324.5,0.7,1.2,306.0,0.00,16.2,23.0,"21:30:08",1
"21/10/03","21:50",0.0,18.5,83.6,1021.3,304.7,0.7,1.1,335.3,0.00,15.7,22.9,"21:49:28",1
"21/10/03","22:00",0.0,18.5,84.1,1021.1,296.1,0.7,1.4,328.8,0.00,15.8,22.8,"21:50:48",1
"21/10/03","22:10",0.0,18.5,84.5,1021.1,318.8,1.0,1.7,335.0,0.00,15.9,22.9,"22:07:28",1
"21/10/03","22:20",0.0,18.6,85.3,1021.3,294.8,1.0,1.7,300.4,0.00,16.1,22.8,"22:11:20",1
"21/10/03","22:30",0.0,18.7,85.5,1021.1,306.2,0.8,1.6,315.3,0.00,16.3,22.9,"22:21:52",1
"21/10/03","22:40",0.0,18.7,85.9,1020.8,307.7,0.7,1.4,312.4,0.00,16.3,22.7,"22:33:52",1
"21/10/03","22:50",0.0,18.7,86.2,1021.1,325.3,0.7,1.7,334.9,0.00,16.4,22.8,"22:48:08",1
"21/10/03","23:00",0.0,18.4,86.5,1020.8,310.5,0.7,1.2,322.6,0.00,16.1,22.6,"22:50:40",1
"21/10/03","23:10",0.0,18.2,87.0,1021.1,311.9,0.8,1.6,312.3,0.00,16.0,22.8,"23:09:44",1
"21/10/03","23:20",0.0,18.3,87.4,1020.8,326.6,0.8,1.7,326.1,0.00,16.2,22.8,"23:15:52",1
"21/10/03","23:30",0.0,18.5,87.7,1020.8,317.3,0.6,1.3,305.3,0.00,16.5,22.6,"23:28:00",1
"21/10/03","23:40",0.0,18.4,88.0,1021.1,329.5,0.6,1.2,327.1,0.00,16.4,22.7,"23:36:08",1
"21/10/03","23:50",0.0,18.0,88.3,1020.8,298.2,0.5,1.1,306.6,0.00,16.1,22.7,"23:49:12",1
"21/10/03","24:00",0.0,18.4,88.8,1021.1,317.0,1.0,1.8,341.1,0.00,16.6,22.5,"23:59:20",1
